Monticello, KY

10:51 AM EST on December 18, 2017 (GMT -0500)
Wayne County

Weather History for KEKQ - February, 2013

Change the Weather History Date:

Wednesday, February 27, 2013

  Actual Average Record
Temperature  
Mean Temperature 36 °F -  
Max Temperature 39 °F 53 °F 75 °F (1977)
Min Temperature 33 °F 29 °F 4 °F (1963)
Degree Days  
Heating Degree Days 29    
Moisture  
Dew Point 34 °F    
Average Humidity 88    
Maximum Humidity 100    
Minimum Humidity 73    
Precipitation  
Precipitation 0.03 in - - ()
Sea Level Pressure  
Sea Level Pressure 29.82 in    
Wind  
Wind Speed 11 mph (ENE)    
Max Wind Speed 18 mph    
Max Gust Speed 24 mph    
Visibility 8 miles    
Events Rain    
Averages and records for this station are not official NWS values.
T = Trace of Precipitation, MM = Missing Value Source: NWS Daily Summary

Daily Weather History Graph

Daily Weather History Graph

Search for Another Location

Airport or City:

Trip Planner

Search our weather history database for the weather conditions in past years. The results will help you decide how hot, cold, wet, or windy it might be!

Date:

Astronomy

Feb. 27, 2013 Rise Set
Actual Time 6:12 AM CST 5:32 PM CST
Civil Twilight 5:46 AM CST 5:58 PM CST
Nautical Twilight 5:16 AM CST 6:28 PM CST
Astronomical Twilight 4:46 AM CST 6:58 PM CST
Moon 7:47 PM CST (2/27) 6:51 AM CST (2/27)
Length of Visible Light 12h 11m
Length of Day
11h 19m
Waning Gibbous, 96% of the Moon is Illuminated
Feb 27
Waning Gibbous
Mar 4
Last Quarter
Mar 11
New
Mar 19
First Quarter
Mar 27
Full

Hourly Weather History & Observations

Time (CST) Temp. Windchill Dew Point Humidity Pressure Visibility Wind Dir Wind Speed Gust Speed Precip Events Conditions
12:02 AM 37.4 °F 30.3 °F 35.6 °F 93% 29.69 in 3.0 mi ENE 10.4 mph - 0.00 in Rain Light Rain
12:19 AM 37.4 °F 30.8 °F 35.6 °F 93% 29.69 in 10.0 mi NNE 9.2 mph - 0.00 in   Mostly Cloudy
12:49 AM 39.2 °F 32.5 °F 35.6 °F 87% 29.70 in 10.0 mi NE 10.4 mph - 0.00 in   Overcast
12:56 AM 38.8 °F 32.6 °F 34.9 °F 86% 29.72 in 10.0 mi NE 9.2 mph - 0.00 in   Overcast
1:56 AM 37.9 °F 29.2 °F 34.0 °F 86% 29.73 in 7.0 mi ENE 15.0 mph 20.7 mph 0.00 in Rain Light Rain
2:15 AM 37.4 °F 27.5 °F 33.8 °F 87% 29.71 in 10.0 mi ENE 18.4 mph 21.9 mph 0.00 in   Overcast
2:40 AM 37.4 °F 28.5 °F 33.8 °F 87% 29.72 in 10.0 mi NE 15.0 mph 20.7 mph 0.00 in   Overcast
2:56 AM 36.9 °F 28.2 °F 34.9 °F 93% 29.75 in 10.0 mi ENE 13.8 mph 19.6 mph 0.00 in   Overcast
3:56 AM 37.9 °F 29.6 °F 34.0 °F 86% 29.76 in 10.0 mi ENE 13.8 mph - N/A   Overcast
5:56 AM 37.9 °F 30.0 °F 32.9 °F 82% 29.80 in 10.0 mi ENE 12.7 mph - N/A   Overcast
6:56 AM 37.9 °F 30.9 °F 34.0 °F 86% 29.81 in 10.0 mi ENE 10.4 mph - N/A   Overcast
7:56 AM 37.9 °F 30.5 °F 34.0 °F 86% 29.85 in 10.0 mi NE 11.5 mph - N/A   Overcast
8:56 AM 37.9 °F 30.9 °F 34.0 °F 86% 29.86 in 5.0 mi NE 10.4 mph - 0.00 in Rain Light Rain
9:56 AM 38.8 °F 31.2 °F 34.0 °F 83% 29.85 in 10.0 mi NE 12.7 mph - 0.00 in   Overcast
10:56 AM 39.9 °F 32.1 °F 34.0 °F 79% 29.85 in 10.0 mi NE 13.8 mph - N/A   Overcast
11:56 AM 39.9 °F 32.5 °F 32.0 °F 73% 29.85 in 10.0 mi ENE 12.7 mph - N/A   Overcast
12:56 PM 38.8 °F 30.0 °F 32.0 °F 76% 29.83 in 10.0 mi ENE 16.1 mph - N/A   Overcast
1:56 PM 38.8 °F 31.6 °F 32.0 °F 76% 29.83 in 10.0 mi NE 11.5 mph - N/A   Overcast
2:56 PM 38.8 °F 31.6 °F 32.0 °F 76% 29.85 in 10.0 mi ENE 11.5 mph - N/A   Overcast
3:56 PM 36.9 °F 28.2 °F 32.9 °F 86% 29.86 in 2.5 mi ENE 13.8 mph 20.7 mph 0.00 in Rain Light Rain
4:26 PM 35.6 °F 26.6 °F 33.8 °F 93% 29.84 in 3.0 mi ENE 13.8 mph - 0.01 in Rain Light Rain
4:30 PM 35.6 °F 27.5 °F 33.8 °F 93% 29.83 in 2.5 mi ENE 11.5 mph - 0.01 in Rain Light Rain
4:46 PM 35.6 °F 28.0 °F 33.8 °F 93% 29.84 in 4.0 mi ENE 10.4 mph - 0.01 in Rain Light Rain
4:56 PM 36.0 °F 28.5 °F 34.0 °F 93% 29.88 in 7.0 mi ENE 10.4 mph - 0.01 in Rain Light Rain
5:26 PM 35.6 °F 28.6 °F 33.8 °F 93% 29.85 in 4.0 mi ENE 9.2 mph - 0.00 in Rain Light Rain
5:56 PM 34.9 °F 27.7 °F 34.0 °F 97% 29.90 in 5.0 mi ENE 9.2 mph - 0.01 in Rain Light Rain
6:20 PM 35.6 °F 29.2 °F 33.8 °F 93% 29.86 in 5.0 mi ENE 8.1 mph - 0.00 in Rain Light Rain
6:31 PM 35.6 °F 29.2 °F 33.8 °F 93% 29.86 in 5.0 mi ENE 8.1 mph - 0.01 in Rain Light Rain
6:56 PM 34.9 °F 27.1 °F 32.9 °F 92% 29.90 in 6.0 mi East 10.4 mph - 0.01 in Rain Light Rain
7:24 PM 33.8 °F 27.0 °F 33.8 °F 100% 29.86 in 4.0 mi ENE 8.1 mph - 0.00 in Rain Light Rain
7:33 PM 33.8 °F 27.0 °F 33.8 °F 100% 29.86 in 5.0 mi ENE 8.1 mph - 0.00 in Rain Light Rain
7:46 PM 35.6 °F 29.9 °F 33.8 °F 93% 29.86 in 7.0 mi ENE 6.9 mph - 0.00 in   Mostly Cloudy
8:13 PM 35.6 °F 28.6 °F 33.8 °F 93% 29.85 in 10.0 mi ENE 9.2 mph - N/A   Overcast
8:43 PM 35.6 °F 28.6 °F 33.8 °F 93% 29.85 in 10.0 mi ENE 9.2 mph - N/A   Overcast
8:56 PM 34.9 °F 28.3 °F 32.9 °F 92% 29.88 in 10.0 mi ENE 8.1 mph - N/A   Overcast
9:56 PM 34.9 °F 26.6 °F 32.0 °F 89% 29.89 in 10.0 mi East 11.5 mph 24.2 mph 0.00 in   Overcast
10:56 PM 34.9 °F 27.1 °F 31.1 °F 86% 29.88 in 10.0 mi ENE 10.4 mph 20.7 mph 0.00 in   Overcast